Weather History for Farmington, NM

Change the Weather History Date:

Saturday, January 25, 2014

  Actual Average Record
Temperature  
Mean Temperature 30 °F -  
Max Temperature 46 °F 43 °F 55 °F (1999)
Min Temperature 14 °F 21 °F 1 °F (1988)
Degree Days  
Heating Degree Days 35    
Moisture  
Dew Point 9 °F    
Average Humidity 46    
Maximum Humidity 74    
Minimum Humidity 14    
Precipitation  
Precipitation 0.00 in - - ()
Sea Level Pressure  
Sea Level Pressure 30.38 in    
Wind  
Wind Speed 6 mph (NE)    
Max Wind Speed 10 mph    
Max Gust Speed -    
Visibility 10 miles    
Events      
Averages and records for this station are not official NWS values.
T = Trace of Precipitation, MM = Missing Value Source: NWS Daily Summary

Daily Weather History Graph

Daily Weather History Graph

Search for Another Location

Airport:

Trip Planner

Search our weather history database for the weather conditions in past years. The results will help you decide how hot, cold, wet, or windy it might be!

Date:

Astronomy

Jan. 25, 2014 Rise Set
Actual Time 7:19 AM MST 5:31 PM MST
Civil Twilight 6:52 AM MST 5:58 PM MST
Nautical Twilight 6:20 AM MST 6:30 PM MST
Astronomical Twilight 5:50 AM MST 7:00 PM MST
Moon 1:55 AM MST (1/25) 12:33 PM MST (1/25)
Length of Visible Light 11h 06m
Length of Day
10h 11m
Waning Crescent, 33% of the Moon is Illuminated
Jan 25
Waning Crescent
Jan 30
New
Feb 6
First Quarter
Feb 14
Full
Feb 22
Last Quarter

Hourly Weather History & Observations

Time (MST) Temp. Windchill Dew Point Humidity Pressure Visibility Wind Dir Wind Speed Gust Speed Precip Events Conditions
12:53 AM 18.0 °F 11.1 °F 8.1 °F 65% 30.51 in 10.0 mi NE 4.6 mph - N/A   Clear
1:53 AM 16.0 °F 7.4 °F 7.0 °F 68% 30.51 in 10.0 mi ENE 5.8 mph - N/A   Clear
2:53 AM 16.0 °F 7.4 °F 7.0 °F 68% 30.51 in 10.0 mi NE 5.8 mph - N/A   Clear
3:53 AM 15.1 °F 6.4 °F 7.0 °F 70% 30.50 in 10.0 mi NE 5.8 mph - N/A   Clear
4:53 AM 18.0 °F 8.7 °F 10.0 °F 71% 30.48 in 10.0 mi East 6.9 mph - N/A   Clear
5:53 AM 15.1 °F 7.7 °F 8.1 °F 74% 30.48 in 10.0 mi East 4.6 mph - N/A   Clear
6:53 AM 17.1 °F 6.6 °F 10.0 °F 74% 30.51 in 10.0 mi East 8.1 mph - N/A   Clear
7:53 AM 16.0 °F 7.4 °F 9.0 °F 74% 30.51 in 10.0 mi ENE 5.8 mph - N/A   Clear
8:53 AM 23.0 °F 17.0 °F 12.9 °F 65% 30.50 in 10.0 mi East 4.6 mph - N/A   Clear
9:53 AM 26.1 °F 19.4 °F 12.9 °F 58% 30.50 in 10.0 mi ESE 5.8 mph - N/A   Clear
10:53 AM 30.0 °F 24.1 °F 14.0 °F 51% 30.47 in 10.0 mi SE 5.8 mph - N/A   Clear
11:53 AM 35.1 °F - 14.0 °F 42% 30.42 in 10.0 mi Calm Calm - N/A   Clear
12:53 PM 39.9 °F 34.5 °F 12.9 °F 33% 30.35 in 10.0 mi West 8.1 mph - N/A   Clear
1:53 PM 42.1 °F 36.6 °F 10.9 °F 28% 30.31 in 10.0 mi West 9.2 mph - N/A   Clear
2:53 PM 45.0 °F 39.7 °F 9.0 °F 23% 30.27 in 10.0 mi WNW 10.4 mph - N/A   Clear
3:53 PM 44.1 °F 38.6 °F 7.0 °F 22% 30.26 in 10.0 mi West 10.4 mph - N/A   Clear
4:53 PM 39.9 °F 33.9 °F 8.1 °F 27% 30.26 in 10.0 mi West 9.2 mph - N/A   Clear
5:53 PM 37.0 °F 30.4 °F 9.0 °F 31% 30.27 in 10.0 mi WSW 9.2 mph - N/A   Clear
6:53 PM 34.0 °F 29.8 °F 9.0 °F 35% 30.27 in 10.0 mi WSW 4.6 mph - N/A   Clear
7:53 PM 34.0 °F - 9.0 °F 35% 30.28 in 10.0 mi Calm Calm - N/A   Clear
8:53 PM 32.0 °F 28.7 °F 8.1 °F 37% 30.25 in 10.0 mi West 3.5 mph - N/A   Clear
9:53 PM 25.0 °F - 5.0 °F 43% 30.26 in 10.0 mi Calm Calm - N/A   Clear
10:53 PM 21.9 °F 17.2 °F 3.9 °F 46% 30.26 in 10.0 mi NNE 3.5 mph - N/A   Clear
11:53 PM 19.0 °F 13.9 °F 3.0 °F 50% 30.24 in 10.0 mi NNE 3.5 mph - N/A   Clear